Waarnemingen

Advertentie
Mijn weer
Harstena, Zweden (2563): temperatuur & dauwpunt: 19.02.2018 02:00:00 - 25.02.2018 02:00:00 (CET)Harstena, Zweden (2563): windsnelheid & windstoten: 19.02.2018 02:00:00 - 25.02.2018 02:00:00 (CET)Harstena, Zweden (2563): windrichting: 19.02.2018 02:00:00 - 25.02.2018 02:00:00 (CET)Harstena, Zweden (2563): luchtdruk: 19.02.2018 02:00:00 - 25.02.2018 02:00:00 (CET)Harstena, Zweden (2563): zicht: 19.02.2018 02:00:00 - 25.02.2018 02:00:00 (CET)Harstena, Zweden (2563): neerslag: 19.02.2018 02:00:00 - 25.02.2018 02:00:00 (CET)
Datum & Tijd tt [°C] td [°C] ff [km/u] ff [kn] fx [km/u] fx [kn] dd ppp [hPa] vv [km] rr [mm]
25.02.2018 02:00:00 -5,8 -11,3 18 10 38 20 NNO 1037,8 50 0,0
25.02.2018 01:00:00 -5,4 -10,2 19 10 35 19 NNO 1037,8 50 0,0
25.02.2018 00:00:00 -5,2 -10,2 18 10 33 18 NNO 1037,8 34 0,0
24.02.2018 23:00:00 -5,2 -10,0 18 10 32 17 N 1037,9 29 0,0
24.02.2018 22:00:00 -5,0 -10,0 16 9 32 17 NNO 1037,7 40 0,0
24.02.2018 21:00:00 -5,0 -9,8 16 9 29 16 N 1037,7 41 0,0
24.02.2018 20:00:00 -5,0 -9,4 15 8 30 16 N 1037,7 25 0,0
24.02.2018 19:00:00 -5,0 -9,4 16 9 31 17 N 1037,8 45 0,0
24.02.2018 18:00:00 -4,8 -9,1 18 10 31 17 NNW 1037,7 38 0,0
24.02.2018 17:00:00 -4,8 -11,2 12 7 24 13 N 1037,9 50 0,0
24.02.2018 16:00:00 -4,7 -11,5 13 7 28 15 N 1038,2 50 0,0
24.02.2018 15:00:00 -4,5 -10,7 14 8 34 18 N 1038,3 50 0,0
24.02.2018 14:00:00 -4,3 -10,3 13 7 34 18 NNO 1038,1 50 0,0
24.02.2018 13:00:00 -4,1 -9,3 15 8 37 20 N 1038,1 50 0,0
24.02.2018 12:00:00 -3,5 -8,6 18 10 37 20 NNO 1038,2 50 0,0
24.02.2018 11:00:00 -4,2 -7,6 19 10 33 18 N 1038,1 45 0,0
24.02.2018 10:00:00 -4,3 -8,2 17 9 32 18 NNO 1037,9 47 0,0
24.02.2018 09:00:00 -4,5 -7,8 19 11 34 18 NNO 1037,7 50 0,0
24.02.2018 08:00:00 -5,0 -7,8 16 9 37 20 NNO 1037,3 50 0,0
24.02.2018 07:00:00 -5,0 -7,0 22 12 37 20 N 1036,9 31 0,0
24.02.2018 06:00:00 -5,1 -7,1 25 14 37 20 N 1036,5 9 0,0
24.02.2018 05:00:00 -4,4 -7,2 23 12 39 21 N 1035,8 50 0,0
24.02.2018 04:00:00 -4,3 -7,9 23 12 42 23 NNO 1035,2 50 0,0
24.02.2018 03:00:00 -4,4 -8,0 23 12 42 23 NNO 1034,8 50 0,0
24.02.2018 02:00:00 -4,4 -8,3 23 12 42 23 NNO 1034,3 50 0,0
24.02.2018 01:00:00 -4,2 -8,3 21 11 42 23 NNO 1034,0 49 0,0
24.02.2018 00:00:00 -3,9 -9,5 18 10 39 21 NNO 1033,4 50 0,0
23.02.2018 23:00:00 -3,7 -9,5 18 10 39 21 NNO 1033,0 50 0,0
23.02.2018 22:00:00 -3,3 -8,2 18 10 37 20 NNO 1032,4 50 0,0
23.02.2018 21:00:00 -3,1 -7,8 18 10 42 23 NNO 1031,7 13 0,1
23.02.2018 20:00:00 -3,1 -8,7 21 11 42 23 NO 1031,0 25 0,3
23.02.2018 19:00:00 -2,9 -5,4 20 11 41 22 NNO 1030,4 2,3 0,1
23.02.2018 18:00:00 -2,5 -6,7 19 11 41 22 NNO 1029,7 36 0,0
23.02.2018 17:00:00 -2,6 -5,1 24 13 37 20 N 1029,0 3,5 0,0
23.02.2018 16:00:00 -2,1 -5,9 20 11 36 19 N 1028,2 11 0,0
23.02.2018 15:00:00 - - - - - - - - - -
23.02.2018 14:00:00 -2,1 -5,8 19 10 37 20 N 1027,5 15 0,0
23.02.2018 13:00:00 -1,7 -5,7 16 9 33 18 N 1027,2 10 0,0
23.02.2018 12:00:00 -1,9 -3,8 17 9 30 16 N 1026,9 37 0,0
23.02.2018 11:00:00 -2,5 -3,8 16 9 33 18 NNW 1026,5 2,5 0,1
23.02.2018 10:00:00 -2,4 -4,1 18 10 33 18 NNW 1026,2 21 0,0
23.02.2018 09:00:00 -2,6 -3,6 16 9 26 14 NW 1025,8 16 0,0
23.02.2018 08:00:00 -3,0 -3,8 10 6 18 10 WNW 1025,6 10 0,0
23.02.2018 07:00:00 -3,4 -4,2 10 6 18 10 WNW 1025,6 2,7 0,1
23.02.2018 06:00:00 -3,5 -4,5 11 6 18 10 W 1025,5 6 0,0
23.02.2018 05:00:00 -3,5 -4,8 8 5 18 10 W 1025,5 4,3 0,0
23.02.2018 04:00:00 -3,3 -4,6 10 5 20 11 WZW 1025,7 3,9 0,2
23.02.2018 03:00:00 -3,2 -4,5 7 4 24 13 W 1026,3 1,0 0,1
23.02.2018 02:00:00 -2,9 -5,1 9 5 24 13 W 1026,7 18 0,0
23.02.2018 01:00:00 -3,1 -5,3 13 7 24 13 WZW 1026,7 15 0,0
23.02.2018 00:00:00 -2,7 -6,2 12 6 23 12 WZW 1027,2 50 0,0
22.02.2018 23:00:00 -2,7 -6,3 11 6 21 11 WZW 1027,7 50 0,0
22.02.2018 22:00:00 -2,5 -6,5 10 5 19 10 WZW 1028,1 50 0,0
22.02.2018 21:00:00 -2,5 -6,5 8 4 15 8 WZW 1028,2 50 0,0
22.02.2018 20:00:00 -2,6 -7,1 5 3 13 7 W 1028,5 50 0,0
22.02.2018 19:00:00 -2,5 -7,6 7 4 13 7 W 1028,7 50 0,0
22.02.2018 18:00:00 -2,4 -7,5 6 4 11 6 WNW 1028,6 50 0,0
22.02.2018 17:00:00 -2,3 -7,0 7 4 10 6 NNW 1028,6 49 0,0
22.02.2018 16:00:00 -2,0 -6,9 4 2 13 7 WZW 1028,8 50 0,0
22.02.2018 15:00:00 -1,1 -7,2 5 3 13 7 WZW 1029,0 50 0,0
22.02.2018 14:00:00 -1,3 -7,9 5 3 12 6 WZW 1029,5 50 0,0
22.02.2018 13:00:00 -2,8 -8,5 8 4 13 7 NNW 1030,0 50 0,0
22.02.2018 12:00:00 -3,2 -8,1 6 4 13 7 N 1030,2 50 0,0
22.02.2018 11:00:00 -3,7 -7,3 7 4 16 9 NNW 1030,2 49 0,0
22.02.2018 10:00:00 -4,5 -7,1 9 5 16 9 NW 1030,2 49 0,0
22.02.2018 09:00:00 -5,1 -6,8 11 6 16 9 NW 1030,2 37 0,0
22.02.2018 08:00:00 -5,7 -6,9 11 6 15 8 NW 1030,0 27 0,0
22.02.2018 07:00:00 -6,2 -7,1 10 5 14 8 NNW 1029,9 17 0,0
22.02.2018 06:00:00 -7,0 -7,8 5 3 11 6 NW 1029,6 13 0,0
22.02.2018 05:00:00 -6,7 -7,5 4 2 16 8 NW 1029,5 10 0,0
22.02.2018 04:00:00 -6,8 -7,6 9 5 17 9 NW 1029,5 12 0,0
22.02.2018 03:00:00 -7,0 -7,8 12 7 17 9 NW 1029,7 13 0,0
22.02.2018 02:00:00 -6,2 -7,0 8 4 17 9 NW 1029,4 14 0,0
22.02.2018 01:00:00 -5,7 -6,8 10 6 18 10 NW 1029,4 19 0,0
22.02.2018 00:00:00 -4,9 -6,4 13 7 18 10 NNW 1029,1 39 0,0
21.02.2018 23:00:00 -4,0 -7,6 8 4 27 15 N 1028,9 50 0,0
21.02.2018 22:00:00 -3,9 -7,8 11 6 27 15 NNO 1028,7 50 0,0
21.02.2018 21:00:00 -4,4 -6,5 14 8 24 13 NNW 1028,6 50 0,0
21.02.2018 20:00:00 -4,5 -7,3 12 6 20 11 NNW 1028,2 50 0,0
21.02.2018 19:00:00 -4,3 -7,6 13 7 20 11 NNW 1027,7 50 0,0
21.02.2018 18:00:00 -3,9 -8,0 9 5 18 10 NNW 1027,5 50 0,0
21.02.2018 17:00:00 -4,0 -9,0 9 5 18 10 N 1027,1 50 0,0
21.02.2018 16:00:00 -3,7 -8,4 10 6 18 10 NNW 1027,0 15 0,0
21.02.2018 15:00:00 -3,7 -8,2 10 5 19 11 NNW 1026,8 23 0,0
21.02.2018 14:00:00 -3,7 -7,1 10 5 22 12 N 1026,9 9 0,0
21.02.2018 13:00:00 -3,7 -6,5 12 6 22 12 N 1027,0 22 0,1
21.02.2018 12:00:00 -4,3 -5,7 12 6 19 10 NNW 1027,1 2,1 0,2
21.02.2018 11:00:00 -4,0 -6,5 10 5 18 10 N 1027,0 2,6 0,0
21.02.2018 10:00:00 -3,7 -8,0 8 5 16 9 N 1026,9 30 0,0
21.02.2018 09:00:00 -3,8 -7,4 8 4 17 9 N 1026,7 24 0,0
21.02.2018 08:00:00 -4,2 -7,5 9 5 17 9 N 1026,5 41 0,0
21.02.2018 07:00:00 -4,3 -7,9 9 5 17 9 NW 1026,4 50 0,0
21.02.2018 06:00:00 -4,4 -8,0 10 5 17 9 NW 1026,6 50 0,0
21.02.2018 05:00:00 -4,3 -7,9 7 4 17 9 NNW 1026,6 50 0,0
21.02.2018 04:00:00 -4,0 -9,0 8 5 17 9 NNW 1027,0 50 0,0
21.02.2018 03:00:00 -4,0 -9,2 9 5 23 12 NNW 1027,1 50 0,0
21.02.2018 02:00:00 -3,9 -9,3 11 6 23 12 N 1027,5 50 0,0
21.02.2018 01:00:00 -4,0 -8,8 13 7 22 12 NNW 1027,5 50 0,0
21.02.2018 00:00:00 -3,9 -8,0 13 7 22 12 NW 1027,8 50 0,0
20.02.2018 23:00:00 -3,7 -7,5 13 7 22 12 NNW 1027,7 50 0,0
20.02.2018 22:00:00 -3,6 -7,7 12 6 21 11 NNW 1027,5 33 0,0
20.02.2018 21:00:00 -3,5 -8,0 11 6 24 13 N 1027,6 46 0,0
20.02.2018 20:00:00 -3,3 -9,1 10 6 39 21 N 1027,7 50 0,0
20.02.2018 19:00:00 -3,4 -7,9 16 9 39 21 NNW 1027,8 50 0,0
20.02.2018 18:00:00 -3,4 -7,9 16 8 24 13 N 1027,6 50 0,0
20.02.2018 17:00:00 -3,3 -8,0 12 6 22 12 NNW 1027,5 50 0,0
20.02.2018 16:00:00 -3,1 -7,6 12 7 22 12 N 1027,4 50 0,0
20.02.2018 15:00:00 -2,8 -7,3 10 5 22 12 N 1027,6 45 0,0
20.02.2018 14:00:00 -3,1 -5,7 12 6 26 14 N 1027,8 5 0,0
20.02.2018 13:00:00 -2,5 -5,3 13 7 27 14 N 1028,0 17 0,0
20.02.2018 12:00:00 -2,8 -5,0 16 8 27 14 N 1028,0 4,2 0,0
20.02.2018 11:00:00 -2,8 -4,7 16 8 26 14 N 1027,9 5 0,0
20.02.2018 10:00:00 -2,7 -4,6 14 8 29 15 N 1027,9 6 0,1
20.02.2018 09:00:00 -2,8 -4,8 16 9 29 15 N 1027,6 5 0,0
20.02.2018 08:00:00 -2,7 -4,7 13 7 27 15 N 1027,5 6 0,0
20.02.2018 07:00:00 -2,6 -4,8 15 8 26 14 N 1027,4 7 0,0
20.02.2018 06:00:00 -2,7 -4,9 13 7 28 15 N 1027,4 8 0,1
20.02.2018 05:00:00 -2,5 -4,5 13 7 28 15 NNO 1027,4 5 0,1
20.02.2018 04:00:00 -2,4 -4,3 12 6 29 16 NNO 1027,3 2,4 0,1
20.02.2018 03:00:00 -2,4 -4,6 14 8 29 16 NNO 1027,5 5 0,0
20.02.2018 02:00:00 -2,1 -4,9 16 8 31 17 NO 1027,5 11 0,0
20.02.2018 01:00:00 -1,8 -4,5 14 8 31 17 NO 1027,3 7 0,1
20.02.2018 00:00:00 -1,6 -4,8 17 9 32 17 NO 1027,3 8 0,0
19.02.2018 23:00:00 -1,6 -4,1 17 9 33 18 NO 1027,0 6 0,0
19.02.2018 22:00:00 -1,7 -4,4 18 10 36 19 NO 1026,9 7 0,1
19.02.2018 21:00:00 -1,6 -3,9 20 11 39 21 NO 1026,8 5 0,1
19.02.2018 20:00:00 -1,2 -3,4 19 10 45 24 NO 1026,6 5 0,0
19.02.2018 19:00:00 -0,6 -3,0 24 13 47 26 NO 1026,0 10 0,0
19.02.2018 18:00:00 -0,3 -2,4 25 14 47 26 ONO 1025,5 15 0,0
19.02.2018 17:00:00 0,2 -2,0 32 17 49 27 O 1025,0 30 0,0
19.02.2018 16:00:00 0,3 -1,6 31 17 50 27 O 1024,4 19 0,0
19.02.2018 15:00:00 0,3 -0,3 29 16 50 27 ONO 1023,7 6 0,0
19.02.2018 14:00:00 1,0 0,0 32 18 42 23 O 1023,1 14 0,0
19.02.2018 13:00:00 1,6 0,4 10 5 26 14 O 1022,9 18 0,0
19.02.2018 12:00:00 1,6 0,3 12 6 23 12 ONO 1022,7 25 0,0
19.02.2018 11:00:00 1,9 0,1 13 7 22 12 O 1022,3 44 0,0
19.02.2018 10:00:00 1,4 0,4 10 5 22 12 O 1021,9 24 0,0
19.02.2018 09:00:00 0,9 0,2 12 7 19 11 ZO 1021,7 14 0,0
19.02.2018 08:00:00 1,0 0,0 11 6 18 10 OZO 1021,3 6 0,0
19.02.2018 07:00:00 0,8 0,1 12 6 18 10 O 1021,0 15 0,0
19.02.2018 06:00:00 0,5 -0,2 5 3 9 5 O 1020,8 14 0,0
19.02.2018 05:00:00 0,2 -0,4 3 1 10 5 ZZO 1020,8 15 0,0
19.02.2018 04:00:00 -0,1 -0,7 5 3 13 7 ZZO 1020,9 9 0,0
19.02.2018 03:00:00 -0,7 -1,3 6 3 13 7 ZZO 1021,2 7 0,0
19.02.2018 02:00:00 -0,3 -0,9 6 4 12 7 Z 1021,5 9 0,0

tt = temperatuur
td = dauwpunt
ff = windsnelheid
fx = windstoten
dd = windrichting
ppp = luchtdruk
vv = zicht
rr = neerslag

Weerstations in de omgeving